Friday Harbor, WA

10:57 PM PDT on July 29, 2016 (GMT -0700)
Friday Harbor

Weather History for KFHR - May, 2013

Change the Weather History Date:

Monday, May 6, 2013

  Actual Average Record
Temperature  
Mean Temperature 62 °F -  
Max Temperature 75 °F 57 °F 75 °F (2013)
Min Temperature 48 °F 39 °F 30 °F (2002)
Degree Days  
Heating Degree Days 4    
Growing Degree Days 12 (Base 50)    
Moisture  
Dew Point 48 °F    
Average Humidity 68    
Maximum Humidity 93    
Minimum Humidity 42    
Precipitation  
Precipitation 0.00 in - - ()
Sea Level Pressure  
Sea Level Pressure 29.84 in    
Wind  
Wind Speed 1 mph (SSE)    
Max Wind Speed 8 mph    
Max Gust Speed -    
Visibility 10 miles    
Events      
Averages and records for this station are not official NWS values.
T = Trace of Precipitation, MM = Missing Value Source: NWS Daily Summary

Daily Weather History Graph

Daily Weather History Graph

Search for Another Location

Airport or City:

Trip Planner

Search our weather history database for the weather conditions in past years. The results will help you decide how hot, cold, wet, or windy it might be!

Date:

Astronomy

May. 06, 2013 Rise Set
Actual Time 5:43 AM PDT 8:34 PM PDT
Civil Twilight 5:07 AM PDT 9:10 PM PDT
Nautical Twilight 4:21 AM PDT 9:57 PM PDT
Astronomical Twilight 3:26 AM PDT 10:53 PM PDT
Moon 4:04 AM PDT (5/6) 5:27 PM PDT (5/6)
Length of Visible Light 16h 02m
Length of Day
14h 50m
Waning Crescent, 10% of the Moon is Illuminated
May 6
Waning Crescent
May 9
New
May 17
First Quarter
May 24
Full
May 31
Last Quarter

Hourly Weather History & Observations

Time (PDT) Temp. Dew Point Humidity Pressure Visibility Wind Dir Wind Speed Gust Speed Precip Events Conditions
12:53 AM 51.1 °F 45.0 °F 80% 29.84 in 10.0 mi Calm Calm - N/A   Clear
1:53 AM 51.1 °F 45.0 °F 80% 29.85 in 10.0 mi Calm Calm - N/A   Clear
2:53 AM 50.0 °F 44.1 °F 80% 29.85 in 10.0 mi Calm Calm - N/A   Clear
3:53 AM 51.1 °F 45.0 °F 80% 29.85 in 10.0 mi Calm Calm - N/A   Clear
4:53 AM 48.9 °F 44.1 °F 83% 29.85 in 10.0 mi Calm Calm - N/A   Clear
5:53 AM 48.9 °F 44.1 °F 83% 29.86 in 10.0 mi Calm Calm - N/A   Clear
6:53 AM 54.0 °F 46.9 °F 77% 29.87 in 10.0 mi Calm Calm - N/A   Clear
7:53 AM 57.9 °F 50.0 °F 75% 29.88 in 10.0 mi Calm Calm - N/A   Clear
8:53 AM 60.1 °F 48.9 °F 67% 29.88 in 10.0 mi Calm Calm - N/A   Clear
9:53 AM 66.0 °F 52.0 °F 60% 29.88 in 10.0 mi ESE 3.5 mph - N/A   Clear
10:53 AM 69.1 °F 48.0 °F 47% 29.87 in 10.0 mi SE 3.5 mph - N/A   Clear
11:53 AM 73.0 °F 50.0 °F 44% 29.86 in 10.0 mi ESE 3.5 mph - N/A   Clear
12:53 PM 73.9 °F 51.1 °F 45% 29.85 in 10.0 mi Calm Calm - N/A   Clear
1:53 PM 75.0 °F 51.1 °F 43% 29.84 in 10.0 mi East 3.5 mph - N/A   Clear
2:53 PM 75.9 °F 51.1 °F 42% 29.83 in 10.0 mi ESE 3.5 mph - N/A   Clear
3:53 PM 72.0 °F 50.0 °F 46% 29.82 in 10.0 mi SW 8.1 mph - N/A   Clear
4:53 PM 71.1 °F 48.0 °F 44% 29.81 in 10.0 mi SSW 6.9 mph - N/A   Clear
5:53 PM 69.1 °F 48.9 °F 49% 29.80 in 10.0 mi SSW 6.9 mph - N/A   Clear
6:53 PM 64.9 °F 48.9 °F 56% 29.78 in 10.0 mi SSE 3.5 mph - N/A   Clear
7:53 PM 54.0 °F 48.0 °F 80% 29.78 in 10.0 mi Calm Calm - N/A   Clear
8:53 PM 51.1 °F 46.9 °F 86% 29.79 in 10.0 mi Calm Calm - N/A   Clear
9:53 PM 48.9 °F 46.0 °F 90% 29.81 in 10.0 mi Calm Calm - N/A   Clear
10:53 PM 48.0 °F 46.0 °F 93% 29.81 in 10.0 mi Calm Calm - N/A   Clear
11:53 PM 48.0 °F 46.0 °F 93% 29.82 in 10.0 mi Calm Calm - N/A   Clear